Weather History for Colby, KS

Change the Weather History Date:

Thursday, April 3, 2014

  Actual Average (KGLD) Record (KGLD)
Temperature  
Mean Temperature 34 °F 45 °F  
Max Temperature 35 °F 60 °F 86 °F (1943)
Min Temperature 30 °F 31 °F 15 °F (1936)
Degree Days  
Heating Degree Days 32 20  
Month to date heating degree days 60  
Since 1 July heating degree days 5235  
Cooling Degree Days 0 0  
Month to date cooling degree days 0  
Year to date cooling degree days 0  
Moisture  
Dew Point 34 °F    
Average Humidity 100    
Maximum Humidity 100    
Minimum Humidity 93    
Precipitation  
Precipitation 0.00 in 0.04 in 1.19 in (2012)
Month to date precipitation 0.12  
Year to date precipitation 2.06  
Snow  
Snow 0.00 in 0.20 in - ()
Month to date snowfall 0.7  
Since 1 July snowfall 31.5  
Snow Depth -    
Sea Level Pressure  
Sea Level Pressure 29.83 in    
Wind  
Wind Speed 14 mph (NNW)    
Max Wind Speed 20 mph    
Max Gust Speed 28 mph    
Visibility 4 miles    
Events Rain , Snow    
T = Trace of Precipitation, MM = Missing Value Source: NWS Daily Summary

Daily Weather History Graph

Daily Weather History Graph

Search for Another Location

Airport:

Trip Planner

Search our weather history database for the weather conditions in past years. The results will help you decide how hot, cold, wet, or windy it might be!

Date:

Astronomy

Apr. 03, 2014 Rise Set
Actual Time 7:25 AM CDT 8:10 PM CDT
Civil Twilight 6:58 AM CDT 8:37 PM CDT
Nautical Twilight 6:26 AM CDT 9:09 PM CDT
Astronomical Twilight 5:52 AM CDT 9:42 PM CDT
Moon 9:56 AM CDT (4/3) No Moon Set
Length of Visible Light 13h 39m
Length of Day
12h 44m
Waxing Crescent, 17% of the Moon is Illuminated
Apr 3
Waxing Crescent
Apr 7
First Quarter
Apr 15
Full
Apr 22
Last Quarter
Apr 29
New

Hourly Weather History & Observations

Time (CDT) Temp. Windchill Dew Point Humidity Pressure Visibility Wind Dir Wind Speed Gust Speed Precip Events Conditions
12:10 AM 35.6 °F 25.5 °F 35.6 °F 100% 29.76 in 5.0 mi North 17.3 mph 26.5 mph N/A   Overcast
12:30 AM 35.6 °F 25.5 °F 35.6 °F 100% 29.76 in 4.0 mi North 17.3 mph - N/A   Overcast
12:50 AM 33.8 °F 23.5 °F 33.8 °F 100% 29.76 in 3.0 mi North 16.1 mph - N/A   Overcast
1:10 AM 33.8 °F 22.8 °F 33.8 °F 100% 29.75 in 2.5 mi North 18.4 mph 21.9 mph N/A   Overcast
1:30 AM 33.8 °F 23.2 °F 33.8 °F 100% 29.74 in 2.5 mi North 17.3 mph - N/A   Overcast
1:50 AM 33.8 °F 22.8 °F 33.8 °F 100% 29.74 in 2.5 mi North 18.4 mph 24.2 mph N/A   Overcast
2:10 AM 33.8 °F 23.2 °F 33.8 °F 100% 29.75 in 2.5 mi NNE 17.3 mph - N/A   Overcast
2:30 AM 33.8 °F 23.9 °F 33.8 °F 100% 29.74 in 2.5 mi North 15.0 mph - N/A   Overcast
2:50 AM 33.8 °F 24.3 °F 33.8 °F 100% 29.74 in 3.0 mi North 13.8 mph - N/A   Overcast
3:10 AM 33.8 °F 24.3 °F 33.8 °F 100% 29.73 in 4.0 mi North 13.8 mph 19.6 mph N/A   Overcast
3:30 AM 33.8 °F 24.3 °F 33.8 °F 100% 29.73 in 2.5 mi North 13.8 mph - N/A   Overcast
3:50 AM 33.8 °F 24.8 °F 33.8 °F 100% 29.74 in 2.0 mi North 12.7 mph 18.4 mph N/A   Overcast
4:10 AM 33.8 °F 25.3 °F 33.8 °F 100% 29.73 in 2.0 mi NNW 11.5 mph 18.4 mph N/A   Overcast
4:30 AM 33.8 °F 23.9 °F 33.8 °F 100% 29.72 in 2.0 mi NNW 15.0 mph 19.6 mph N/A   Overcast
4:50 AM 33.8 °F 24.3 °F 33.8 °F 100% 29.73 in 1.8 mi NNW 13.8 mph 18.4 mph N/A   Overcast
5:10 AM 33.8 °F 23.9 °F 33.8 °F 100% 29.73 in 1.8 mi NNW 15.0 mph - N/A   Overcast
5:30 AM 33.8 °F 24.3 °F 33.8 °F 100% 29.74 in 2.5 mi NNW 13.8 mph - N/A   Overcast
5:50 AM 33.8 °F 22.8 °F 33.8 °F 100% 29.72 in 3.0 mi North 18.4 mph 24.2 mph N/A   Overcast
6:10 AM 33.8 °F 23.5 °F 33.8 °F 100% 29.73 in 5.0 mi North 16.1 mph 24.2 mph N/A   Light Drizzle
6:30 AM 33.8 °F 23.5 °F 33.8 °F 100% 29.74 in 5.0 mi North 16.1 mph 19.6 mph N/A   Overcast
6:50 AM 33.8 °F 23.5 °F 33.8 °F 100% 29.74 in 5.0 mi North 16.1 mph - N/A   Overcast
7:10 AM 33.8 °F 25.3 °F 33.8 °F 100% 29.76 in 7.0 mi North 11.5 mph 19.6 mph N/A   Overcast
7:30 AM 33.8 °F 24.3 °F 33.8 °F 100% 29.76 in 5.0 mi North 13.8 mph 20.7 mph N/A   Overcast
7:50 AM 33.8 °F 23.5 °F 33.8 °F 100% 29.76 in 5.0 mi North 16.1 mph - N/A   Overcast
8:10 AM 33.8 °F 24.3 °F 33.8 °F 100% 29.78 in 5.0 mi North 13.8 mph - N/A   Overcast
8:30 AM 33.8 °F 23.2 °F 33.8 °F 100% 29.78 in 7.0 mi North 17.3 mph 20.7 mph N/A   Overcast
8:50 AM 33.8 °F 24.3 °F 33.8 °F 100% 29.78 in 7.0 mi North 13.8 mph - N/A   Overcast
9:10 AM 33.8 °F 23.5 °F 33.8 °F 100% 29.78 in 7.0 mi North 16.1 mph - N/A   Overcast
9:30 AM 33.8 °F 23.5 °F 33.8 °F 100% 29.78 in 7.0 mi North 16.1 mph - N/A   Overcast
9:50 AM 33.8 °F 25.3 °F 33.8 °F 100% 29.78 in 3.0 mi North 11.5 mph - N/A Snow Light Snow
10:10 AM 33.8 °F 25.3 °F 33.8 °F 100% 29.78 in 3.0 mi North 11.5 mph - N/A Snow Light Snow
10:30 AM 33.8 °F 24.3 °F 33.8 °F 100% 29.79 in 3.0 mi North 13.8 mph 19.6 mph N/A Rain Rain
10:50 AM 33.8 °F 23.9 °F 33.8 °F 100% 29.79 in 3.0 mi North 15.0 mph - N/A   Drizzle
11:10 AM 33.8 °F 24.8 °F 33.8 °F 100% 29.79 in 2.5 mi North 12.7 mph - N/A Rain Rain
11:30 AM 33.8 °F 23.2 °F 33.8 °F 100% 29.79 in 3.0 mi North 17.3 mph - N/A Rain Light Rain
11:50 AM 33.8 °F 23.2 °F 33.8 °F 100% 29.80 in 3.0 mi North 17.3 mph 23.0 mph N/A Snow Light Snow
12:10 PM 33.8 °F 24.3 °F 33.8 °F 100% 29.80 in 1.8 mi NNW 13.8 mph - N/A Snow Light Snow
12:30 PM 33.8 °F 23.2 °F 33.8 °F 100% 29.81 in 1.8 mi North 17.3 mph 24.2 mph N/A Snow Light Snow
12:50 PM 33.8 °F 23.9 °F 33.8 °F 100% 29.81 in 1.8 mi NNW 15.0 mph 19.6 mph N/A Snow Light Snow
1:10 PM 33.8 °F 24.3 °F 33.8 °F 100% 29.81 in 1.2 mi NNW 13.8 mph - N/A Snow Light Snow
1:30 PM 33.8 °F 22.8 °F 33.8 °F 100% 29.81 in 0.8 mi NNW 18.4 mph 23.0 mph N/A Snow Light Snow
1:50 PM 33.8 °F 22.5 °F 33.8 °F 100% 29.82 in 0.8 mi North 19.6 mph 27.6 mph N/A Snow Light Snow
2:10 PM 33.8 °F 22.5 °F 33.8 °F 100% 29.83 in 0.5 mi North 19.6 mph 25.3 mph N/A Snow Snow
2:30 PM 33.8 °F 23.9 °F 33.8 °F 100% 29.82 in 0.5 mi NNW 15.0 mph - N/A Snow Snow
2:50 PM 33.8 °F 25.8 °F 33.8 °F 100% 29.84 in 0.5 mi NNW 10.4 mph - N/A Snow Snow
3:10 PM 33.8 °F 26.4 °F 33.8 °F 100% 29.84 in 0.5 mi NNW 9.2 mph - N/A Snow Snow
3:30 PM 33.8 °F 27.7 °F 33.8 °F 100% 29.84 in 0.5 mi NNW 6.9 mph - N/A Snow Snow
3:50 PM 33.8 °F 27.7 °F 33.8 °F 100% 29.85 in 0.5 mi NNW 6.9 mph - N/A Snow Snow
4:10 PM 33.8 °F 27.7 °F 33.8 °F 100% 29.86 in 0.5 mi NNW 6.9 mph - N/A Snow Snow
4:30 PM 33.8 °F 25.3 °F 33.8 °F 100% 29.87 in 0.5 mi NNW 11.5 mph - N/A Snow Snow
4:50 PM 33.8 °F 27.0 °F 33.8 °F 100% 29.87 in 1.0 mi NNW 8.1 mph - N/A Snow Light Snow
5:10 PM 33.8 °F 28.6 °F 33.8 °F 100% 29.88 in 1.8 mi NNW 5.8 mph - N/A Snow Light Snow
5:30 PM 33.8 °F 25.8 °F 33.8 °F 100% 29.90 in 3.0 mi North 10.4 mph - N/A Rain Light Rain
5:50 PM 35.6 °F 29.2 °F 35.6 °F 100% 29.90 in 10.0 mi North 8.1 mph - N/A Rain Light Rain
6:10 PM 35.6 °F 32.8 °F 35.6 °F 100% 29.91 in 10.0 mi NNE 3.5 mph - N/A   Overcast
6:30 PM 35.6 °F - 35.6 °F 100% 29.93 in 10.0 mi Calm Calm - N/A   Overcast
6:50 PM 35.6 °F 32.8 °F 35.6 °F 100% 29.94 in 10.0 mi WNW 3.5 mph - N/A   Overcast
7:10 PM 35.6 °F 30.7 °F 35.6 °F 100% 29.95 in 10.0 mi NW 5.8 mph - N/A   Mostly Cloudy
7:30 PM 35.6 °F 30.7 °F 35.6 °F 100% 29.96 in 10.0 mi WNW 5.8 mph - N/A   Clear
7:50 PM 35.6 °F 30.7 °F 35.6 °F 100% 29.97 in 10.0 mi West 5.8 mph - N/A   Clear
8:10 PM 35.6 °F 30.7 °F 35.6 °F 100% 29.98 in 10.0 mi West 5.8 mph - N/A   Clear
8:30 PM 33.8 °F 27.7 °F 33.8 °F 100% 29.99 in 10.0 mi West 6.9 mph - N/A   Clear
8:50 PM 33.8 °F 27.7 °F 33.8 °F 100% 29.99 in 10.0 mi West 6.9 mph - N/A   Clear
9:15 PM 32.0 °F 24.8 °F 32.0 °F 100% 30.01 in 10.0 mi WNW 8.1 mph - N/A   Clear
9:30 PM 33.8 °F 26.4 °F 33.8 °F 100% 30.02 in 10.0 mi WNW 9.2 mph - N/A   Clear
10:50 PM 32.0 °F 24.8 °F 32.0 °F 100% 30.04 in 10.0 mi NW 8.1 mph - N/A   Clear
11:10 PM 32.0 °F 24.8 °F 30.2 °F 93% 30.05 in 10.0 mi NW 8.1 mph - N/A   Clear
11:50 PM 30.2 °F 23.4 °F 30.2 °F 100% 30.06 in 10.0 mi NW 6.9 mph - N/A   Clear